Berlin, MD

8:24 AM EST on January 16, 2017 (GMT -0500)
Ocean City Municipal

Weather History for KOXB - March, 2014

Change the Weather History Date:

Tuesday, March 25, 2014

  Actual Average (KSBY) Record (KSBY)
Temperature  
Mean Temperature 34 °F -  
Max Temperature 39 °F 54 °F 84 °F (1939)
Min Temperature 28 °F 34 °F 17 °F (2009)
Degree Days  
Heating Degree Days 32    
Moisture  
Dew Point 28 °F    
Average Humidity 78    
Maximum Humidity 96    
Minimum Humidity 45    
Precipitation  
Precipitation 0.00 in - - ()
Sea Level Pressure  
Sea Level Pressure 29.94 in    
Wind  
Wind Speed 8 mph (ENE)    
Max Wind Speed 18 mph    
Max Gust Speed 28 mph    
Visibility 4 miles    
Events Fog , Snow    
Averages and records for this station are not official NWS values.
T = Trace of Precipitation, MM = Missing Value Source: NWS Daily Summary

Daily Weather History Graph

Daily Weather History Graph

Search for Another Location

Airport or City:

Trip Planner

Search our weather history database for the weather conditions in past years. The results will help you decide how hot, cold, wet, or windy it might be!

Date:

Astronomy

Mar. 25, 2014 Rise Set
Actual Time 6:56 AM EDT 7:17 PM EDT
Civil Twilight 6:29 AM EDT 7:43 PM EDT
Nautical Twilight 5:58 AM EDT 8:14 PM EDT
Astronomical Twilight 5:27 AM EDT 8:46 PM EDT
Moon 3:11 AM EDT (3/25) 1:49 PM EDT (3/25)
Length of Visible Light 13h 13m
Length of Day
12h 20m
Waning Crescent, 32% of the Moon is Illuminated
Mar 25
Waning Crescent
Mar 30
New
Apr 7
First Quarter
Apr 15
Full
Apr 22
Last Quarter

Hourly Weather History & Observations

Time (EDT) Temp. Windchill Dew Point Humidity Pressure Visibility Wind Dir Wind Speed Gust Speed Precip Events Conditions
12:53 AM 32.0 °F 28.7 °F 19.0 °F 59% 30.18 in 10.0 mi South 3.5 mph - N/A   Clear
1:53 AM 28.0 °F - 18.0 °F 66% 30.18 in 10.0 mi Calm Calm - N/A   Clear
2:53 AM 28.0 °F - 21.0 °F 75% 30.16 in 10.0 mi Calm Calm - N/A   Clear
3:53 AM 30.0 °F - 21.0 °F 69% 30.15 in 10.0 mi Calm Calm - N/A   Clear
4:53 AM 35.1 °F 32.2 °F 21.0 °F 57% 30.12 in 10.0 mi SE 3.5 mph - N/A   Clear
5:53 AM 35.1 °F 31.0 °F 19.9 °F 54% 30.11 in 10.0 mi SE 4.6 mph - N/A   Clear
6:53 AM 36.0 °F 29.6 °F 19.9 °F 52% 30.10 in 10.0 mi ESE 8.1 mph - N/A   Overcast
7:53 AM 36.0 °F 30.3 °F 19.0 °F 50% 30.10 in 10.0 mi East 6.9 mph - N/A   Overcast
8:53 AM 37.9 °F 30.9 °F 18.0 °F 45% 30.10 in 10.0 mi SE 10.4 mph 18.4 mph N/A   Overcast
9:53 AM 39.0 °F 31.8 °F 19.9 °F 46% 30.11 in 10.0 mi SE 11.5 mph - N/A   Overcast
10:53 AM 39.0 °F 34.0 °F 21.0 °F 49% 30.10 in 10.0 mi SE 6.9 mph 17.3 mph N/A   Overcast
11:53 AM 37.9 °F 31.5 °F 26.1 °F 62% 30.07 in 9.0 mi ESE 9.2 mph 17.3 mph N/A   Overcast
12:16 PM 37.9 °F 32.1 °F 28.0 °F 68% 30.05 in 5.0 mi SE 8.1 mph - 0.00 in Snow Light Snow
12:27 PM 37.9 °F 30.9 °F 28.9 °F 70% 30.04 in 10.0 mi ESE 10.4 mph - 0.00 in   Overcast
12:34 PM 37.9 °F 30.9 °F 28.9 °F 70% 30.03 in 6.0 mi ESE 10.4 mph - 0.00 in Snow Light Snow
12:53 PM 37.9 °F 30.9 °F 30.9 °F 76% 30.01 in 5.0 mi East 10.4 mph - 0.00 in Snow Light Snow
1:15 PM 37.9 °F 30.0 °F 30.0 °F 73% 29.98 in 10.0 mi ENE 12.7 mph - 0.00 in   Mostly Cloudy
1:53 PM 37.9 °F 29.6 °F 28.0 °F 68% 29.96 in 10.0 mi East 13.8 mph - 0.00 in   Overcast
2:18 PM 36.0 °F 28.0 °F 28.0 °F 73% 29.94 in 2.5 mi ENE 11.5 mph - 0.00 in Snow Light Snow
2:29 PM 35.1 °F 26.4 °F 28.9 °F 78% 29.93 in 0.8 mi ENE 12.7 mph - 0.00 in Snow Light Snow
2:42 PM 34.0 °F 26.0 °F 30.0 °F 85% 29.93 in 0.8 mi ENE 10.4 mph - 0.00 in Snow Light Snow
2:53 PM 34.0 °F 25.5 °F 30.9 °F 89% 29.91 in 0.8 mi ENE 11.5 mph - 0.00 in Snow Light Snow
3:02 PM 34.0 °F 25.0 °F 30.9 °F 89% 29.89 in 1.0 mi ENE 12.7 mph - 0.00 in Snow Light Snow
3:17 PM 34.0 °F 23.8 °F 30.9 °F 89% 29.88 in 0.8 mi ENE 16.1 mph 21.9 mph 0.00 in Snow Light Snow
3:53 PM 34.0 °F 23.8 °F 30.9 °F 89% 29.86 in 0.8 mi ENE 16.1 mph 23.0 mph 0.00 in Snow Light Snow
4:41 PM 33.1 °F 23.0 °F 30.9 °F 92% 29.83 in 0.5 mi ENE 15.0 mph 24.2 mph 0.00 in Fog , Snow Snow
4:53 PM 33.1 °F 22.2 °F 30.9 °F 92% 29.83 in 0.2 mi ENE 17.3 mph 24.2 mph 0.00 in Fog , Snow Heavy Snow
5:21 PM 33.1 °F 21.9 °F 30.9 °F 92% 29.82 in 0.2 mi ENE 18.4 mph 26.5 mph 0.00 in Fog , Snow Heavy Snow
5:53 PM 33.1 °F 22.6 °F 30.9 °F 92% 29.81 in 0.2 mi ENE 16.1 mph 23.0 mph 0.00 in Fog , Snow Heavy Snow
6:04 PM 33.1 °F 23.0 °F 30.9 °F 92% 29.80 in 0.5 mi ENE 15.0 mph 24.2 mph 0.00 in Fog , Snow Snow
6:39 PM 33.1 °F 23.0 °F 30.9 °F 92% 29.79 in 0.5 mi NE 15.0 mph 27.6 mph 0.00 in Fog , Snow Snow
6:53 PM 33.1 °F 23.4 °F 30.9 °F 92% 29.80 in 0.5 mi NE 13.8 mph 25.3 mph 0.00 in Fog , Snow Snow
7:45 PM 33.1 °F 23.4 °F 30.9 °F 92% 29.79 in 0.8 mi NE 13.8 mph 24.2 mph 0.00 in Snow Light Snow
7:53 PM 33.1 °F 24.9 °F 30.9 °F 92% 29.79 in 0.5 mi NE 10.4 mph 24.2 mph 0.00 in Fog , Snow Snow
8:46 PM 33.1 °F 23.9 °F 32.0 °F 96% 29.80 in 1.0 mi NNE 12.7 mph - 0.00 in Snow Light Snow
8:53 PM 33.1 °F - 32.0 °F 96% 29.80 in 1.0 mi North - - 0.00 in Snow Light Snow
8:58 PM 33.1 °F - 32.0 °F 96% 29.80 in 0.8 mi North - - 0.00 in Snow Light Snow
9:53 PM 33.1 °F 22.2 °F 30.9 °F 92% 29.79 in 0.8 mi NNE 17.3 mph 26.5 mph 0.00 in Snow Light Snow
10:02 PM 33.1 °F 23.4 °F 30.9 °F 92% 29.79 in 0.8 mi NNE 13.8 mph 23.0 mph 0.00 in Snow Light Snow
10:30 PM 33.1 °F 23.4 °F 30.9 °F 92% 29.80 in 1.0 mi NNE 13.8 mph 20.7 mph 0.00 in Snow Light Snow
10:53 PM 33.1 °F 24.4 °F 30.9 °F 92% 29.80 in 1.2 mi NNE 11.5 mph 23.0 mph 0.00 in Snow Light Snow
11:53 PM 33.1 °F 23.4 °F 30.9 °F 92% 29.78 in 1.2 mi North 13.8 mph 21.9 mph 0.00 in Snow Light Snow